Regional Weather Roundup
Issued by NWS Nashville, TN

Home | Current Version | Previous Version | Text Only | Print | Product List | Glossary On
Versions: 1 2 3 4 5 6 7 8 9 10 11 12 13 14 15 16 17 18 19 20 21 22 23 24 25 26 27 28 29 30 31 32 33 34 35 36 37 38 39 40 41 42 43 44 45 46 47 48 49 50
000
ASUS44 KOHX 040410
RWROHX
MIDDLE TENNESSEE HOURLY WEATHER ROUNDUP
NATIONAL WEATHER SERVICE NASHVILLE TN
1000 PM CST SAT DEC 03 2016

NOTE: "FAIR" INDICATES FEW OR NO CLOUDS BELOW 12,000 FEET WITH
NO SIGNIFICANT WEATHER AND/OR OBSTRUCTIONS TO VISIBILITY.

* THESE REPORTS ARE NOT UNDER NWS QUALITY CONTROL AND MAY NOT
  REPORT WEATHER SUCH AS PRECIPITATION AND FOG.


TNZ005>011-023>034-057-059-062>066-078-080-040500
...NORTHERN MIDDLE TENNESSEE...

CITY           SKY/WX    TMP DP  RH WIND       PRES   REMARKS
CLARKSVILLE    LGT RAIN  40  34  79 E6        30.24F
CROSSVILLE     MIX PCPN  37  35  92 NE3       30.22F
LEBANON        CLOUDY    38  37  96 NE3       30.23F
NASHVILLE      LGT RAIN  40  36  86 NE7       30.25F
PORTLAND       CLOUDY    39  34  81 E5        30.24F
SMYRNA         LGT RAIN  40  37  89 NE6       30.26F
SPRINGFIELD    CLOUDY    39  36  87 CALM      30.23F
WEST NASHVILLE PTCLDY    37  37 100 NE5       30.25F WCI  34
$$
TNZ056-058-060-061-075>077-079-093>097-040500
...SOUTHERN MIDDLE TENNESSEE...

CITY           SKY/WX    TMP DP  RH WIND       PRES   REMARKS
COLUMBIA       CLOUDY   N/A N/A N/A E6        30.19F
FAYETTEVILLE   CLOUDY    41  39  93 NE8       30.20S FOG
MCMINNVILLE    CLOUDY    39  39 100 NE5       30.23S
MURFREESBORO   CLOUDY    40  38  93 CALM      30.24
SHELBYVILLE    CLOUDY    41  39  93 NE5       30.23F
TULLAHOMA      CLOUDY    37  37 100 NE7       30.20F WCI  32
WINCHESTER     CLOUDY    39  39 100 NE5       30.21S
$$


...KEY TO REMARKS...
VSB - VISIBILITY IN MILES
WCI - WIND CHILL INDEX
HX  - HEAT INDEX




USA.gov is the U.S. government's official web portal to all federal, state and local government web resources and services.